When you browse on this site, cookies collect data to enhance your experience and personalize the content and advertising you see.
Visit our Privacy Policy to learn more. By continuing to use the site, you agree to this use of cookies and data.
  • In Hungary
  • List of Countries
  • For 7 days
  • Water Temperature
  • Weather Map
  • News
  • Weather Widgets
  • user-avatar
    Login

    Hourly Weather Leszczyna

    Today, 13 November, Wednesday

    Time Temperature Precipitation Wind Pressure Humidity
    00:00 +5°C° 0.9 mm 1 mps 726 mmHg 97%
    01:00 +5°C° 0.9 mm 1 mps 726 mmHg 97%
    02:00 +5°C° 0.5 mm 1 mps 725 mmHg 97%
    03:00 +5°C° 0.5 mm 1 mps 725 mmHg 97%
    04:00 +5°C° 0.5 mm 1 mps 725 mmHg 97%
    05:00 +5°C° 0 mm 1 mps 725 mmHg 97%
    06:00 +5°C° 0 mm 1 mps 724 mmHg 97%
    07:00 +5°C° 0 mm 1 mps 724 mmHg 97%
    08:00 +5°C° 0.2 mm 1 mps 724 mmHg 97%
    09:00 +4°C° 0.2 mm 2 mps 724 mmHg 96%
    10:00 +4°C° 0.2 mm 2 mps 724 mmHg 96%
    11:00 +4°C° 1 mm 2 mps 723 mmHg 96%
    12:00 +4°C° 1 mm 2 mps 723 mmHg 96%
    13:00 +4°C° 1 mm 2 mps 723 mmHg 96%
    14:00 +4°C° 0.5 mm 2 mps 724 mmHg 96%
    15:00 +4°C° 0.5 mm 2 mps 724 mmHg 95%
    16:00 +4°C° 0.5 mm 2 mps 724 mmHg 95%
    17:00 +4°C° 0.5 mm 2 mps 724 mmHg 95%
    18:00 +3°C° 0.5 mm 3 mps 724 mmHg 95%
    19:00 +3°C° 0.5 mm 3 mps 724 mmHg 94%
    20:00 +2°C° 1.5 mm 3 mps 724 mmHg 94%
    21:00 +2°C° 1.5 mm 3 mps 725 mmHg 95%
    22:00 +1°C° 1.5 mm 4 mps 725 mmHg 95%
    23:00 +1°C° 0.6 mm 4 mps 726 mmHg 95%

    Tomorrow, 14 November, Thursday

    Time Temperature Precipitation Wind Pressure Humidity
    00:00 +1°C° 0.6 mm 4 mps 726 mmHg 95%
    01:00 0°C° 0.6 mm 4 mps 726 mmHg 96%
    02:00 +1°C° 0.4 mm 3 mps 727 mmHg 94%
    03:00 +1°C° 0.4 mm 3 mps 727 mmHg 93%
    04:00 +3°C° 0.4 mm 2 mps 727 mmHg 91%
    05:00 +2°C° 0 mm 2 mps 728 mmHg 91%
    06:00 +3°C° 0 mm 1 mps 728 mmHg 90%
    07:00 +3°C° 0 mm 1 mps 728 mmHg 89%
    08:00 +2°C° 0 mm 2 mps 729 mmHg 86%
    09:00 +3°C° 0 mm 2 mps 729 mmHg 83%
    10:00 +3°C° 0 mm 3 mps 730 mmHg 80%
    11:00 +5°C° 0 mm 2 mps 730 mmHg 77%
    12:00 +5°C° 0 mm 2 mps 730 mmHg 74%
    13:00 +6°C° 0 mm 2 mps 730 mmHg 71%
    14:00 +5°C° 0 mm 2 mps 730 mmHg 76%
    15:00 +4°C° 0 mm 3 mps 730 mmHg 81%
    16:00 +3°C° 0 mm 3 mps 730 mmHg 85%
    17:00 +3°C° 0 mm 3 mps 730 mmHg 87%
    18:00 +2°C° 0 mm 3 mps 730 mmHg 88%
    19:00 +2°C° 0 mm 3 mps 730 mmHg 90%
    20:00 +3°C° 0 mm 3 mps 730 mmHg 89%
    21:00 +3°C° 0 mm 3 mps 729 mmHg 89%
    22:00 +3°C° 0 mm 4 mps 729 mmHg 89%
    23:00 +3°C° 0 mm 4 mps 729 mmHg 91%

    Day after tomorrow, 15 November, Friday

    Time Temperature Precipitation Wind Pressure Humidity
    00:00 +3°C° 0 mm 4 mps 728 mmHg 93%
    01:00 +3°C° 0 mm 4 mps 728 mmHg 95%
    02:00 +3°C° 0 mm 4 mps 728 mmHg 95%
    03:00 +3°C° 0 mm 4 mps 727 mmHg 95%
    04:00 +3°C° 0 mm 4 mps 727 mmHg 95%
    05:00 +4°C° 0 mm 4 mps 727 mmHg 94%
    06:00 +4°C° 0 mm 4 mps 727 mmHg 92%
    07:00 +3°C° 0 mm 5 mps 727 mmHg 91%
    08:00 +8°C° 0 mm 6 mps 726 mmHg 83%
    09:00 +9°C° 0 mm 6 mps 726 mmHg 78%
    10:00 +10°C° 0 mm 7 mps 727 mmHg 73%
    11:00 +11°C° 0 mm 7 mps 727 mmHg 71%
    12:00 +13°C° 0 mm 6 mps 727 mmHg 69%
    13:00 +13°C° 0 mm 6 mps 727 mmHg 67%
    14:00 +13°C° 0 mm 5 mps 727 mmHg 70%
    15:00 +12°C° 0 mm 5 mps 727 mmHg 73%
    16:00 +11°C° 0 mm 4 mps 727 mmHg 77%
    17:00 +11°C° 0 mm 4 mps 727 mmHg 79%
    18:00 +10°C° 0 mm 4 mps 727 mmHg 81%
    19:00 +10°C° 0 mm 3 mps 727 mmHg 83%
    20:00 +10°C° 0 mm 3 mps 728 mmHg 84%
    21:00 +9°C° 0 mm 3 mps 728 mmHg 85%
    22:00 +8°C° 0 mm 4 mps 728 mmHg 86%
    23:00 +9°C° 0 mm 5 mps 728 mmHg 83%

    16 November, Saturday

    Time Temperature Precipitation Wind Pressure Humidity
    00:00 +10°C° 0 mm 5 mps 728 mmHg 81%
    01:00 +10°C° 0 mm 6 mps 728 mmHg 78%
    02:00 +10°C° 0 mm 6 mps 728 mmHg 78%
    03:00 +10°C° 0 mm 6 mps 728 mmHg 78%
    04:00 +10°C° 0 mm 6 mps 728 mmHg 77%
    05:00 +9°C° 0 mm 5 mps 728 mmHg 80%
    06:00 +10°C° 0 mm 4 mps 729 mmHg 82%
    07:00 +9°C° 0 mm 3 mps 730 mmHg 85%
    08:00 +9°C° 0 mm 3 mps 730 mmHg 83%
    09:00 +8°C° 0 mm 3 mps 731 mmHg 82%
    10:00 +8°C° 0 mm 2 mps 732 mmHg 80%
    11:00 +8°C° 0 mm 2 mps 733 mmHg 78%
    12:00 +8°C° 0 mm 2 mps 733 mmHg 75%
    13:00 +10°C° 0 mm 1 mps 733 mmHg 73%
    14:00 +9°C° 0 mm 1 mps 734 mmHg 76%
    15:00 +8°C° 0 mm 1 mps 734 mmHg 80%
    16:00 +7°C° 0 mm 0 mps 734 mmHg 84%
    17:00 +7°C° 0 mm 1 mps 734 mmHg 85%
    18:00 +7°C° 0 mm 1 mps 735 mmHg 87%
    19:00 +7°C° 0 mm 1 mps 735 mmHg 88%
    20:00 +7°C° 0 mm 1 mps 735 mmHg 89%
    21:00 +6°C° 0 mm 2 mps 735 mmHg 89%
    22:00 +6°C° 0 mm 2 mps 735 mmHg 89%
    23:00 +6°C° 0.2 mm 2 mps 734 mmHg 90%

    17 November, Sunday

    Time Temperature Precipitation Wind Pressure Humidity
    00:00 +7°C° 0.2 mm 2 mps 734 mmHg 90%
    01:00 +7°C° 0.2 mm 2 mps 734 mmHg 90%
    02:00 +7°C° 0.3 mm 2 mps 733 mmHg 91%
    03:00 +8°C° 0.3 mm 2 mps 733 mmHg 91%
    04:00 +8°C° 0.3 mm 2 mps 732 mmHg 92%
    05:00 +8°C° 0 mm 3 mps 732 mmHg 92%
    06:00 +8°C° 0 mm 3 mps 731 mmHg 92%
    07:00 +8°C° 0 mm 3 mps 731 mmHg 91%
    08:00 +9°C° 0 mm 3 mps 731 mmHg 87%
    09:00 +10°C° 0 mm 4 mps 731 mmHg 82%
    10:00 +11°C° 0 mm 4 mps 731 mmHg 78%
    11:00 +12°C° 0 mm 5 mps 730 mmHg 76%
    12:00 +12°C° 0 mm 5 mps 730 mmHg 74%
    13:00 +13°C° 0 mm 5 mps 730 mmHg 73%
    14:00 +12°C° 0 mm 5 mps 730 mmHg 76%
    15:00 +11°C° 0 mm 4 mps 730 mmHg 79%
    16:00 +10°C° 0 mm 4 mps 730 mmHg 82%
    17:00 +10°C° 0 mm 4 mps 730 mmHg 84%
    18:00 +10°C° 0 mm 4 mps 730 mmHg 85%
    19:00 +8°C° 0 mm 4 mps 730 mmHg 87%
    20:00 +8°C° 0 mm 4 mps 730 mmHg 86%
    21:00 +8°C° 0 mm 4 mps 729 mmHg 86%
    22:00 +8°C° 0 mm 4 mps 729 mmHg 85%
    23:00 +8°C° 0 mm 4 mps 729 mmHg 85%

    18 November, Monday

    Time Temperature Precipitation Wind Pressure Humidity
    00:00 +8°C° 0 mm 4 mps 729 mmHg 85%
    01:00 +8°C° 0 mm 4 mps 728 mmHg 84%
    02:00 +7°C° 0 mm 4 mps 728 mmHg 85%
    03:00 +7°C° 0 mm 4 mps 728 mmHg 85%
    04:00 +8°C° 0 mm 3 mps 728 mmHg 85%
    05:00 +7°C° 0 mm 4 mps 728 mmHg 83%
    06:00 +7°C° 0 mm 4 mps 728 mmHg 81%
    07:00 +8°C° 0 mm 5 mps 728 mmHg 80%
    08:00 +8°C° 0 mm 5 mps 729 mmHg 78%
    09:00 +9°C° 0 mm 5 mps 729 mmHg 76%
    10:00 +9°C° 0 mm 5 mps 729 mmHg 74%
    11:00 +10°C° 0 mm 5 mps 729 mmHg 72%
    12:00 +10°C° 0 mm 5 mps 729 mmHg 71%
    13:00 +10°C° 0 mm 5 mps 729 mmHg 69%
    14:00 +11°C° 0 mm 4 mps 730 mmHg 72%
    15:00 +11°C° 0 mm 4 mps 730 mmHg 75%
    16:00 +10°C° 0 mm 3 mps 730 mmHg 78%
    17:00 +10°C° 0 mm 3 mps 730 mmHg 80%
    18:00 +10°C° 0 mm 3 mps 731 mmHg 81%
    19:00 +8°C° 0 mm 4 mps 731 mmHg 82%
    20:00 +9°C° 0 mm 3 mps 732 mmHg 84%
    21:00 +9°C° 0 mm 3 mps 732 mmHg 85%
    22:00 +8°C° 0 mm 2 mps 732 mmHg 87%
    23:00 +8°C° 0 mm 2 mps 733 mmHg 87%
    Show more